Flag for Spain Weather past 2 weeks in A Coruña, Spain

Now
61 °F

Fog.


Feels Like: 61 °F
Forecast: 66 / 73 °F
Wind: 2 mph from North

Location: La Coruna / Alvedro

Current Time: Jul 23, 2014 at 8:53:39 AM

Latest Report: Jul 23, 2014 at 8:00 AM


Visibility: N/A

Pressure: 29.92 "Hg

Humidity: 100%

Dew point: 61 °F

Location of A CoruñaLocation

Historic Weather in A Coruña — Graph

°F

A Coruña temperature yesterday

Maximum temperature yesterday: 84 °F (at 6:30 PM)
Minimum temperature yesterday: 55 °F (at 6:00 AM)
Average temperature yesterday: 70 °F

Past Weeks' High & Low Weather Summary

 TemperatureHumidityPressure
High84 °F (Jul 22, 6:30 PM)100% (Jul 13, 9:30 PM)30.30 "Hg (Jul 13, 9:30 PM)
Low55 °F (Jul 21, 5:30 AM)50% (Jul 20, 3:30 PM)29.77 "Hg (Jul 19, 5:30 AM)
Average67 °F80%30.11 "Hg
* Reported Jul 8 8:00 AM — Jul 23 8:00 AM, A Coruña, Weather by CustomWeather, © 2014

Note: Actual official high and low records may vary slightly from our data, if they occured in-between our weather recording intervals... More about our weather records

Advertising

A Coruña weather history for previous 24 hours

 ConditionsComfort  
Time TempWeatherWind HumidityBarometerVisibility
8:00 AM
Jul 23
61 °FFog.2 mph100%29.92 "HgN/A
7:30 AM61 °FSnow. Light fog.2 mph100%29.95 "HgN/A
7:00 AM61 °FSnow. Fog.2 mph100%29.92 "HgN/A
6:30 AM61 °FClear.3 mph100%29.92 "Hg10 mi
6:00 AM63 °FClear.2 mph94%29.92 "Hg10 mi
5:30 AM63 °FClear.No wind94%29.92 "Hg10 mi
1:00 AM70 °FPassing clouds.5 mph88%29.98 "HgN/A
7:00 PM
Jul 22
84 °FPassing clouds.7 mph55%29.98 "HgN/A
6:30 PM84 °FPassing clouds.5 mph55%29.98 "HgN/A
6:00 PM82 °FPassing clouds.7 mph58%29.98 "HgN/A
5:30 PM82 °FPassing clouds.8 mph58%30.01 "HgN/A
5:00 PM81 °FPassing clouds.7 mph62%30.01 "HgN/A
4:30 PM81 °FPassing clouds.7 mph62%30.01 "HgN/A
4:00 PM81 °FPassing clouds.8 mph66%30.01 "HgN/A
3:30 PM81 °FPassing clouds.7 mph62%30.01 "HgN/A
3:00 PM79 °FPassing clouds.6 mph61%30.04 "HgN/A
2:30 PM79 °FPassing clouds.7 mph61%30.04 "HgN/A
2:00 PM79 °FSunny.6 mph61%30.04 "Hg10 mi
1:30 PM77 °FPassing clouds.5 mph65%30.04 "HgN/A
1:00 PM77 °FPassing clouds.3 mph65%30.04 "HgN/A
12:30 PM77 °FSunny.2 mph65%30.04 "Hg10 mi
12:00 PM73 °FSunny.2 mph74%30.07 "Hg10 mi
11:30 AM73 °FSunny.1 mph74%30.07 "Hg10 mi
11:00 AM73 °FSunny.1 mph74%30.07 "Hg10 mi
10:30 AM70 °FSunny.1 mph78%30.07 "Hg10 mi
10:00 AM68 °FSunny.No wind78%30.07 "Hg10 mi
9:30 AM63 °FSunny.No wind94%30.09 "Hg10 mi
9:00 AM59 °FSleet. Fog.2 mph100%30.09 "HgN/A
8:30 AM57 °FSleet. Fog.2 mph100%30.09 "HgN/A
8:00 AM55 °FSleet. Overcast.No wind100%30.09 "HgN/A
Weather by CustomWeather, © 2014

See weather overviewHow to use our weather pages